Regional Weather Roundup
Issued by NWS

Home | Current Version | Previous Version | Graphics & Text | Print | Product List | Glossary On
Versions: 1 2 3 4 5 6 7 8 9 10 11 12 13 14 15 16 17 18 19 20 21 22 23 24 25 26 27 28 29 30 31 32 33 34 35 36 37 38 39 40 41 42 43 44 45 46 47 48 49 50
000
ASUS43 KIND 031809
RWRIN

WEATHER ROUNDUP FOR INDIANA
NATIONAL WEATHER SERVICE INDIANAPOLIS IN
200 PM EDT TUE MAY 03 2016

NOTE: "FAIR" INDICATES FEW OR NO CLOUDS BELOW 12,000 FEET WITH NO
SIGNIFICANT WEATHER AND/OR OBSTRUCTIONS TO VISIBILITY.

* - STATION DOES NOT REPORT WEATHER SUCH AS PRECIPITATION OR FOG.

+ - STATION NOT QUALITY CONTROLLED BY THE NATIONAL WEATHER SERVICE.
    USE DATA WITH CAUTION...ESPECIALLY DEWPOINT AND RELATIVE
    HUMIDITY OBSERVATIONS.

INZ001>003-010>013-019-020-031900-
NORTHWEST INDIANA

CITY           SKY/WX    TMP DP  RH WIND       PRES   REMARKS
GARY /AIRPORT/ MOSUNNY   66  45  45 SW5       29.92F
KNOX *+        SUNNY     61  23  23 CALM      29.91F
LA PORTE +     SUNNY     64  36  35 N5        29.92F
6HR MIN TEMP:  45; 6HR MAX TEMP:  64;

MICHIGAN CITY+ SUNNY     63  37  39 W6        29.92F
MONTICELLO +   MOSUNNY   61  36  38 N6        29.92F
6HR MIN TEMP:  47; 6HR MAX TEMP:  62;

RENSSELAER +   SUNNY     63  36  36 NE5       29.93F
VALPARAISO     SUNNY     64  33  31 NW7       29.91F
6HR MIN TEMP:  46; 6HR MAX TEMP:  64;


$$

LMZ046-743>745-031900-
SOUTHERN LAKE MICHIGAN

STATION/POSITION TIME  TEMP    WIND        PRES    WAVE
                       AIR SEA DIR/SP/G            HT
                 (UTC) (F)     (DEG/KT/KT) (MB)    (FT)
BURNS HARBOR     1700   55      CALM  /  2 1014.2F
MICHIGAN CITY    1700   51     230/  3/  3   N/A

$$

INZ004-005-014>016-021>024-031900-
NORTH CENTRAL INDIANA

CITY           SKY/WX    TMP DP  RH WIND       PRES   REMARKS
ELKHART        PTSUNNY   63  41  45 N3        29.91F
GOSHEN         MOSUNNY   61  42  49 NW5       29.90F
6HR MIN TEMP:  49; 6HR MAX TEMP:  62;

LOGANSPORT +   MOSUNNY   59  45  58 N5        29.93F
PERU/GRISSOM   CLOUDY    57  46  67 CALM      29.92F
                                      6HR PCP:  0.01;

ROCHESTER +    PTSUNNY   61  41  48 NE3       29.92F
SOUTH BEND     MOSUNNY   62  38  40 W9        29.91F
6HR MIN TEMP:  44; 6HR MAX TEMP:  62;

WARSAW +       PTSUNNY   59  41  51 NW6       29.91F

$$

INZ006>009-017-018-025>027-031900-
NORTHEAST INDIANA

CITY           SKY/WX    TMP DP  RH WIND       PRES   REMARKS
ANGOLA *+      MOSUNNY   61  37  41 VRB3      29.88F
AUBURN +       PTSUNNY   59  37  44 W5        29.91S
FORT WAYNE     PTSUNNY   60  43  53 W7        29.92F
6HR MIN TEMP:  49; 6HR MAX TEMP:  60; 6HR PCP: TRACE;

HUNTINGTON +   CLOUDY   N/A N/A N/A CALM      29.92F

$$

INZ028-029-035-036-043>045-051>053-031900-
WEST CENTRAL INDIANA

CITY           SKY/WX    TMP DP  RH WIND       PRES   REMARKS
CRAWFORDSVL +  MOSUNNY   59  44  57 NW8       29.94F
6HR MIN TEMP:  47; 6HR MAX TEMP:  59;

GREENCASTLE +  CLOUDY    57  46  67 N8        29.95F
LAFAYETTE      PTSUNNY   59  39  47 NW12      29.93F
6HR MIN TEMP:  47; 6HR MAX TEMP:  61;

TERRE HAUTE    CLOUDY    60  42  51 N13       29.95F
6HR MIN TEMP:  50; 6HR MAX TEMP:  61;


$$

INZ030>032-037>040-046>048-054>057-064-065-031900-
CENTRAL INDIANA

CITY           SKY/WX    TMP DP  RH WIND       PRES   REMARKS
ANDERSON       CLOUDY    54  48  82 N5        29.94F
CP ATTERBURY + CLOUDY    54  50  87 N12       29.94F
COLUMBUS       LGT RAIN  54  54 100 N12       29.94F FOG
FISHERS *+     CLOUDY    52  50  93 NW5       29.94F
FRANKFORT +      N/A     59  35  39 N5        29.95F
6HR MIN TEMP:  49; 6HR MAX TEMP:  59; 6HR PCP:  0.01;

GREENWOOD *+   CLOUDY    52  50  93 NW7       29.95F
INDIANAPOLIS   CLOUDY    55  48  77 N9        29.93F
6HR MIN TEMP:  50; 6HR MAX TEMP:  55; 6HR PCP:  0.11;

-EAGLE CREEK   CLOUDY    56  48  74 VRB7      29.93F
6HR MIN TEMP:  50; 6HR MAX TEMP:  56; 6HR PCP:  0.05;

KOKOMO *+      CLOUDY    57  46  67 N3        29.93F
6HR MIN TEMP:  48; 6HR MAX TEMP:  57; 6HR PCP:  0.05;

MARION +       CLOUDY    54  47  80 CALM      29.94F
SHELBYVILLE    LGT RAIN  58  48  69 N9        29.93F
6HR MIN TEMP:  52; 6HR MAX TEMP:  58; 6HR PCP:  0.01;

ZIONSVILLE +   CLOUDY    53  49  85 CALM      29.94F
6HR MIN TEMP:  47; 6HR MAX TEMP:  53; 6HR PCP:  0.03;


$$

INZ033-034-041-042-049-050-058-059-031900-
EAST CENTRAL INDIANA

CITY           SKY/WX    TMP DP  RH WIND       PRES   REMARKS
MUNCIE         CLOUDY    57  46  66 CALM      29.92F
6HR MIN TEMP:  51; 6HR MAX TEMP:  59; 6HR PCP: TRACE;


$$

INZ060-061-067>069-081>083-085>088-031900-
SOUTHWEST INDIANA

CITY           SKY/WX    TMP DP  RH WIND       PRES   REMARKS
EVANSVILLE     CLOUDY    62  45  53 N10G17    29.98F
6HR MIN TEMP:  52; 6HR MAX TEMP:  63;

HUNTINGBURG *+ CLOUDY    61  46  59 NW12      29.96F
6HR MIN TEMP:  52; 6HR MAX TEMP:  61;

WASHINGTON +   CLOUDY    58  49  73 N8        29.96F
6HR MIN TEMP:  50; 6HR MAX TEMP:  59;


$$

INZ062-063-066-070>080-084-089>092-031900-
SOUTH CENTRAL AND SOUTHEAST INDIANA

CITY           SKY/WX    TMP DP  RH WIND       PRES   REMARKS
BEDFORD +      CLOUDY    55  52  88 NW7       29.94S
BLOOMINGTON    CLOUDY    56  48  74 N8        29.94F
6HR MIN TEMP:  51; 6HR MAX TEMP:  56; 6HR PCP: TRACE;

MADISON *+     CLOUDY    55  52  88 W8        29.93F
NORTH VERNON + RAIN     N/A N/A N/A CALM      29.93
SEYMOUR +      CLOUDY    57  52  82 N13       29.93F

$$





USA.gov is the U.S. government's official web portal to all federal, state and local government web resources and services.